TimeCST,TemperatureF,Dew PointF,Humidity,Sea Level PressureIn,VisibilityMPH,Wind Direction,Wind SpeedMPH,Gust SpeedMPH,PrecipitationIn,Events,Conditions,WindDirDegrees,DateUTC
12:00 AM,83,76,75,29.94,12,East,6.9,,,,,100,2012-09-20 06:00:00
3:00 AM,80,75,82,29.89,12,East,3.5,,,,Partly Cloudy,100,2012-09-20 09:00:00
5:00 AM,80.6,77.0,89,29.90,6.2,East,3.5,-,N/A,,Mostly Cloudy,100,2012-09-20 11:00:00
6:00 AM,81,77,83,29.93,12,ESE,3.5,,,,Partly Cloudy,110,2012-09-20 12:00:00
6:00 AM,80.6,77.0,89,29.92,6.2,ESE,3.5,-,N/A,,Mostly Cloudy,110,2012-09-20 12:00:00
7:00 AM,84.2,77.0,79,29.92,6.2,East,3.5,-,N/A,,Mostly Cloudy,100,2012-09-20 13:00:00
8:00 AM,84.2,78.8,84,29.95,6.2,ESE,3.5,-,N/A,,Scattered Clouds,110,2012-09-20 14:00:00
8:35 AM,-9999,-9999,N/A,29.95,5.0,SE,4.6,-,N/A,Rain-Thunderstorm,Thunderstorms and Rain,130,2012-09-20 14:35:00
9:00 AM,80,76,83,29.96,9,ESE,3.5,,,Rain-Thunderstorm,Thunderstorms and Rain,120,2012-09-20 15:00:00
9:00 AM,78.8,75.2,89,29.95,6.2,ESE,3.5,-,N/A,Rain-Thunderstorm,Light Thunderstorms and Rain,120,2012-09-20 15:00:00
9:45 AM,-9999,-9999,N/A,29.94,6.2,SE,4.6,-,N/A,Rain,Rain Showers,130,2012-09-20 15:45:00
10:00 AM,78.8,75.2,89,29.93,6.2,East,3.5,-,N/A,Rain,Light Rain Showers,100,2012-09-20 16:00:00
11:00 AM,86.0,78.8,79,29.92,6.2,East,6.9,-,N/A,,Scattered Clouds,80,2012-09-20 17:00:00
12:00 PM,88,77,63,29.90,12,East,8.1,,,,Partly Cloudy,90,2012-09-20 18:00:00
12:00 PM,87.8,77.0,70,29.89,6.2,East,8.1,-,N/A,,Scattered Clouds,90,2012-09-20 18:00:00
1:00 PM,87.8,77.0,70,29.86,6.2,East,9.2,-,N/A,,Scattered Clouds,80,2012-09-20 19:00:00
2:00 PM,87.8,77.0,70,29.85,6.2,ENE,9.2,-,N/A,,Scattered Clouds,70,2012-09-20 20:00:00
2:35 PM,87.8,77.0,70,29.84,6.2,ENE,9.2,-,N/A,Thunderstorm,Thunderstorm,70,2012-09-20 20:35:00
3:00 PM,88,77,62,29.84,12,East,9.2,,,,,80,2012-09-20 21:00:00
3:00 PM,87.8,77.0,70,29.83,6.2,East,9.2,-,N/A,Thunderstorm,Thunderstorm,80,2012-09-20 21:00:00
3:35 PM,-9999,-9999,N/A,29.83,6.2,East,8.1,-,N/A,,Mostly Cloudy,80,2012-09-20 21:35:00
6:00 PM,83,77,77,29.86,12,East,4.6,,,,Partly Cloudy,90,2012-09-21 00:00:00